User: anonymous   Login
Location: Bergfeld
(52.0500°N, 11.7833°E)
Time: 08:36:47
(UTC+00:00)
Language:

USA 215 - Orbit

View from above orbital plane
View from above orbital plane
View from above satellite
View from above satellite

Ground track
Ground track

The orbit data is extracted from the following two-line orbital elements,

1 37162U 10046A   20153.86988826 0.00000000  00000-0  00000-0 0    09
2 37162 122.9949 289.1339 0007955 152.2181 207.7818 13.41421765    05
Epoch (UTC): 01 June 2020 20:52:38
Eccentricity: 0.0007955
inclination: 122.9949°
perigee height: 1098 km
apogee height: 1110 km
right ascension of ascending node: 289.1339°
argument of perigee: 152.2181°
revolutions per day: 13.41421765
mean anomaly at epoch: 207.7818°
orbit number at epoch: 0

The dashed part of the orbit path shows where the satellite is in the earth's shadow,  

DLR